Погода в Антананариву

Мадагаскар     18°54′05″S   47°31′19″E
темп.,
°C
ветер,
м/с
пор.,
м/с
влажн.,
%
обл.,
%
осадки,
мм/ч
давл.,
гПа
погр.,
м
8 марта, пн
пн800:00+16юв129612 0.4 101253
03:00+16ююв119719 0.4 101131
06:00+17с119785 0.3 101127
09:00+20св228481 0.6 1012582
12:00+25ссв226355 0.5 10101240
15:00+25сз335845 0.9 10081527
18:00+20с01784 0.3 101026
21:00+18всв389425 1.6 1013243
9 марта, вт
вт900:00+16юв139817 0.8 101385
03:00+17вюв119728 1.0 101255
06:00+16всв119673 0.3 101426
09:00+22св117748 0.4 1014690
12:00+27ссз115728 0.4 10121449
15:00+25ссз235937 1.1 10111403
18:00+20св23879 1.3 101391
21:00+17всв269531 3.0 1015221
10 марта, ср
ср1000:00+17св259764 1.1 1015241
03:00+17в149575 1.3 1014300
06:00+17вюв239693 0.0 1015157
09:00+21вюв237961 0.0 1015658
12:00+23в236793 0.2 10141079
15:00+24в337076 1.4 1011973
18:00+19в369117 5.7 1013187
21:00+17в389729 8.8 1015346
11 марта, чт
чт1100:00+17в269788 0.9 1015293
03:00+17юв129587 0.9 1014211
06:00+15юв239475 0.0 1015146
09:00+20вюв247141 0.0 1015628
12:00+24в33530 0.0 10131287
15:00+25всв33582 0.0 10121477
18:00+19в378412 0.4 1013332
21:00+17вюв269612 0.4 1015264
12 марта, пт
пт1200:00+17всв149287 0.1 1015311
03:00+17вюв249385 0.2 1014288
06:00+16вюв259171 0.0 1015274
09:00+21юв247164 0.0 1016733
12:00+25ююв235330 0.0 10131534
15:00+26юв455117 0.0 10121978
18:00+20вюв387732 0.1 1013349
21:00+16юв279641 0.1 1016299